Location: Forst
(46.9333°N, 15.4333°E)
Time: 06:18:38
(UTC+00:00)

Meteor 1-11 Rocket - Pass Details

Date: 01 December 2020
Orbit: 832 x 915 km, 81.2° (Epoch: 18 January)

Event Time Altitude Azimuth Distance (km) Brightness Sun altitude
Rises 17:33:04 0° 349° (N) 3,473 6.9 -23.5°
Reaches altitude 10° 17:35:30 10° 351° (N) 2,544 6.2 -23.9°
Maximum altitude 17:41:19 78° 78° (ENE) 917 3.6 -24.8°
Drops below altitude 10° 17:47:12 10° 165° (SSE) 2,577 6.1 -25.8°
Sets 17:49:41 0° 167° (SSE) 3,522 6.8 -26.3°
